Regional Weather Roundup
Issued by NWS

Home | Current Version | Previous Version | Graphics & Text | Print | Product List | Glossary On
Versions: 1 2 3 4 5 6 7 8 9 10 11 12 13 14 15 16 17 18 19 20 21 22 23 24 25 26 27 28
000
ASUS45 KTFX 221910
RWRMT
MONTANA REGIONAL WEATHER ROUNDUP
NATIONAL WEATHER SERVICE GREAT FALLS MT
100 PM MDT MON AUG 22 2016

NOTE: "FAIR" INDICATES FEW OR NO CLOUDS BELOW 12000 FEET WITH NO
SIGNIFICANT WEATHER AND/OR OBSTRUCTIONS TO VISIBILITY.

MTZ001>007-043-222000-
WEST OF THE DIVIDE

CITY           SKY/WX    TMP DP  RH WIND       PRES   REMARKS
KALISPELL      MOSUNNY   71  30  21 W17G24    29.84S
MISSOULA       SUNNY     73  33  23 W10G25    29.90F
BUTTE          SUNNY     73  20  13 W16G28    29.92F
MULLAN PASS    CLOUDY    49  29  46 NW9G21    30.01R
DEER LODGE       N/A     73  25  16 SW9G22    29.89F
EUREKA           N/A     68  28  22 W15G23    29.82F
HAMILTON         N/A     73  19  13 SW9G16    29.89S
LIBBY            N/A     66  27  22 SW12G21   29.88S
$$

MTZ008-052>055-222000-
SOUTHWEST MONTANA

CITY           SKY/WX    TMP DP  RH WIND       PRES   REMARKS
BOZEMAN        SUNNY     80  36  20 NW12      29.82F
DILLON         SUNNY     81  21  11 SW23G31   29.87F
W YELLOWSTONE  SUNNY     73  25  16 SW14G26   30.02F
ENNIS          SUNNY     84  12   6 SW17G30   29.91F
THREE FORKS      N/A     85  85 100 W14       29.81F HX 107
TWIN BRIDGES     N/A     79  30  16 SW15      29.86F
$$

MTZ009-010-012-014-046-048-049-054-222000-
EAST SLOPES AND CENTRAL MONTANA

CITY           SKY/WX    TMP DP  RH WIND       PRES   REMARKS
CUT BANK       CLOUDY    69  26  20 SW31G38   29.78R HAZE
GREAT FALLS    SUNNY     79  19  10 SW28G35   29.75S
MALMSTROM AFB  SUNNY     78  22  12 W17G31    29.76R
HELENA         MOSUNNY   80  28  15 W18G25    29.81F
CHOTEAU          N/A     77  18  10 W16G26    29.77S
$$

MTZ011-013-016-021-045-047-050-051-222000-
NORTH CENTRAL MONTANA

CITY           SKY/WX    TMP DP  RH WIND       PRES   REMARKS
HAVRE          CLOUDY    83  25  12 W21       29.65S HAZE
LEWISTOWN      CLOUDY    82  31  15 NW15G22   29.77S
N BAR RANCH      N/A     86  21   9 W23G31    29.78F
CHINOOK          N/A     82  27  13 W12G20    29.63F
$$

MTZ017>020-022>027-061-062-222000-
NORTHEAST MONTANA

CITY           SKY/WX    TMP DP  RH WIND       PRES   REMARKS
GLASGOW        SUNNY     90  30  11 W18       29.62S
JORDAN           N/A     92  27   9 NW17G28   29.66R
SIDNEY         SUNNY     88  56  33 SE8       29.60F
WOLF POINT     SUNNY     92  47  21 SW10      29.60F
PLENTYWOOD       N/A     91  43  18 S10       29.60S
$$

MTZ028>42-056>058-222000-
SOUTHCENTRAL AND SOUTHEAST MONTANA

CITY           SKY/WX    TMP DP  RH WIND       PRES   REMARKS
BAKER          SUNNY     91  43  18 S7        29.67F
BILLINGS       PTSUNNY   86  37  17 SW8       29.75F
LIVINGSTON     SUNNY     87  25  10 W17G30    29.77F
MILES CITY     SUNNY     91  41  17 SW5       29.65F
FORSYTH          N/A     86  46  25 W7        29.67F
LAUREL           N/A     88  38  17 SW1       29.76F
ROUNDUP          N/A     86  34  15 S8        29.68S
$$

REGIONAL REPORTS...DAKOTAS

CITY           SKY/WX    TMP DP  RH WIND       PRES   REMARKS
WILLISTON      SUNNY     93  48  21 SE5       29.59F
MINOT          SUNNY     92  51  24 S12       29.60F
DICKINSON      SUNNY     94  35  12 E10       29.62F
CROSBY           N/A     95  41  15 S6G16     29.60S HX  91
BISMARCK       SUNNY     81  64  56 SE9       29.65F
GRAND FORKS    SUNNY     81  62  52 S15       29.69S
FARGO          SUNNY     80  64  58 S12       29.71F
BUFFALO SD       N/A     93  42  17 SW8       29.60F
RAPID CITY     SUNNY     99  46  16 S13       29.67F HX  95
$$

REGIONAL REPORTS...WYOMING/IDAHO/WASHINGTON

CITY           SKY/WX    TMP DP  RH WIND       PRES   REMARKS
GILLETTE       SUNNY     92  28  10 VRB7      29.79F
SHERIDAN       SUNNY     93  29  10 NE8       29.76F
BUFFALO WY     SUNNY     92  11   5 VRB5      29.83F
CODY           SUNNY     84  28  13 W7G17     29.86F
YELLOWSTONE LA   N/A     72  21  14 W12G22    30.12S
IDAHO FALLS    MOSUNNY   80  36  20 SW24G31   29.96F
SALMON         SUNNY     77  34  20 NE12G18   29.83F
BOISE          MOSUNNY   77  32  19 N8G20     29.98F
SPOKANE        PTSUNNY   67  33  28 SW8       29.96R
$$

REGIONAL REPORTS...ALBERTA

CITY           SKY/WX    TMP DP  RH WIND       PRES   REMARKS
EDMONTON       DRIZZLE   54  52  94 CALM      29.41S
CALGARY        PTSUNNY   61  36  39 NW16G25   29.63R
LETHBRIDGE     MOSUNNY   73  25  16 SW37G49   29.65R
MEDICINE HAT   MOSUNNY   75  45  33 W17G29    29.60F
WATERTON GATE    N/A     64  27  24 W23G35      N/A
CARDSTON         N/A     66  25  20 W20G35      N/A
MILK RIVER       N/A     73  27  17 W25G37      N/A
ONEFOUR          N/A     73  21  14 W25G31      N/A
$$

REGIONAL REPORTS...SASKATCHEWAN

CITY           SKY/WX    TMP DP  RH WIND       PRES   REMARKS
SWIFT CURRENT  SUNNY     79  34  19 W22G31    29.59R
REGINA         MOSUNNY   86  45  23 W10G17    29.55R
SASKATOON      PTSUNNY   79  54  41 SW7       29.51R
CYPRESS HILLS    N/A     66  39  37 NW12G21     N/A
VAL MARIE        N/A     84  28  13 W14G21      N/A
ASSINIBOIA       N/A     57  52  82 W9          N/A
$$




USA.gov is the U.S. government's official web portal to all federal, state and local government web resources and services.